| time (UTC) | temp F | wind direction | speed knots | gust knots | rain 1hr in | rain 24hr in | rain mn in | humidity % | barometer mb |
| 20260507150219 | 56 | 331 | 2.6 | 8.7 | 0.00 | 0.47 | 0.25 | 65 | 1014.7 |
| 20260507145725 | 56 | 331 | 0.9 | 5.2 | 0.00 | 0.47 | 0.25 | 65 | 1014.7 |
| 20260507145211 | 56 | 309 | 0.9 | 8.7 | 0.00 | 0.48 | 0.25 | 68 | 1014.7 |
| 20260507144213 | 56 | 24 | 1.7 | 8.7 | 0.00 | 0.49 | 0.25 | 66 | 1014.7 |
| 20260507143716 | 56 | 324 | 0.0 | 4.3 | 0.00 | 0.50 | 0.25 | 69 | 1014.7 |
| 20260507143223 | 55 | 84 | 0.0 | 1.7 | 0.00 | 0.50 | 0.25 | 69 | 1014.7 |
| 20260507142725 | 55 | 246 | 0.0 | 4.3 | 0.00 | 0.50 | 0.25 | 76 | 1014.7 |
| 20260507141716 | 53 | 261 | 0.0 | 2.6 | 0.00 | 0.50 | 0.25 | 73 | 1014.8 |
| 20260507140221 | 52 | 201 | 0.0 | 3.5 | 0.00 | 0.51 | 0.25 | 76 | 1015.0 |
| 20260507135719 | 52 | 263 | 0.0 | 5.2 | 0.00 | 0.52 | 0.25 | 76 | 1015.0 |
| 20260507135225 | 51 | 319 | 0.9 | 5.2 | 0.00 | 0.52 | 0.25 | 78 | 1015.0 |
| 20260507134725 | 51 | 286 | 0.9 | 5.2 | 0.00 | 0.53 | 0.25 | 79 | 1015.0 |
| 20260507134220 | 51 | 331 | 0.0 | 3.5 | 0.00 | 0.53 | 0.25 | 80 | 1015.1 |
| 20260507133722 | 51 | 331 | 0.0 | 3.5 | 0.00 | 0.54 | 0.25 | 79 | 1015.1 |
| 20260507133215 | 51 | 5 | 0.9 | 3.5 | 0.00 | 0.55 | 0.25 | 79 | 1015.1 |
| 20260507132722 | 51 | 315 | 0.9 | 3.5 | 0.00 | 0.55 | 0.25 | 79 | 1015.1 |
| 20260507132221 | 51 | 309 | 0.0 | 3.5 | 0.00 | 0.55 | 0.25 | 79 | 1015.0 |
| 20260507131716 | 51 | 349 | 0.0 | 4.3 | 0.00 | 0.56 | 0.25 | 79 | 1015.0 |
| 20260507131218 | 51 | 277 | 0.0 | 4.3 | 0.00 | 0.56 | 0.25 | 78 | 1015.0 |
| 20260507130727 | 51 | 261 | 0.9 | 3.5 | 0.00 | 0.56 | 0.25 | 79 | 1015.1 |
| 20260507130223 | 51 | 172 | 0.9 | 3.5 | 0.00 | 0.56 | 0.25 | 78 | 1015.0 |
| 20260507125724 | 51 | 165 | 0.9 | 3.5 | 0.00 | 0.57 | 0.25 | 78 | 1015.0 |
| 20260507124719 | 51 | 163 | 0.0 | 4.3 | 0.00 | 0.61 | 0.25 | 77 | 1015.0 |
| 20260507124217 | 51 | 169 | 0.9 | 4.3 | 0.00 | 0.61 | 0.25 | 77 | 1015.0 |
| 20260507123713 | 51 | 151 | 0.9 | 0.0 | 0.00 | 0.61 | 0.25 | 78 | 1015.0 |
| 20260507123217 | 51 | 19 | 0.0 | 0.0 | 0.00 | 0.62 | 0.25 | 78 | 1015.0 |
| 20260507122729 | 51 | 308 | 0.0 | 0.9 | 0.00 | 0.63 | 0.25 | 77 | 1015.0 |
| 20260507122230 | 51 | 331 | 0.0 | 1.7 | 0.00 | 0.65 | 0.25 | 78 | 1015.0 |
| 20260507120708 | 50 | 348 | 0.0 | 1.7 | 0.00 | 0.65 | 0.25 | 80 | 1014.8 |
| 20260507120216 | 50 | 115 | 0.0 | 2.6 | 0.00 | 0.65 | 0.25 | 81 | 1014.8 |
| 20260507115719 | 50 | 119 | 0.0 | 2.6 | 0.00 | 0.65 | 0.25 | 81 | 1014.8 |
| 20260507115212 | 50 | 131 | 0.0 | 0.0 | 0.00 | 0.66 | 0.25 | 81 | 1014.8 |
| 20260507114718 | 50 | 161 | 0.0 | 1.7 | 0.00 | 0.66 | 0.25 | 80 | 1014.8 |
| 20260507114216 | 50 | 35 | 0.0 | 1.7 | 0.00 | 0.66 | 0.25 | 80 | 1014.8 |
| 20260507113718 | 50 | 351 | 0.0 | 1.7 | 0.00 | 0.67 | 0.25 | 81 | 1014.8 |
| 20260507113220 | 50 | 171 | 0.0 | 3.5 | 0.00 | 0.68 | 0.25 | 82 | 1014.8 |
| 20260507112709 | 49 | 161 | 0.0 | 3.5 | 0.00 | 0.68 | 0.25 | 82 | 1015.0 |
| 20260507112217 | 49 | 191 | 0.9 | 3.5 | 0.00 | 0.68 | 0.25 | 83 | 1015.0 |
| 20260507111721 | 49 | 150 | 0.9 | 3.5 | 0.00 | 0.69 | 0.25 | 84 | 1015.0 |
| 20260507111222 | 49 | 174 | 0.0 | 3.5 | 0.00 | 0.69 | 0.25 | 84 | 1015.0 |
| 20260507110223 | 49 | 113 | 0.0 | 2.6 | 0.00 | 0.69 | 0.25 | 83 | 1014.8 |
| 20260507105722 | 49 | 181 | 0.0 | 2.6 | 0.00 | 0.69 | 0.25 | 83 | 1015.0 |
| 20260507105220 | 49 | 141 | 0.0 | 2.6 | 0.00 | 0.69 | 0.25 | 84 | 1014.8 |
| 20260507104717 | 49 | 162 | 0.0 | 0.0 | 0.00 | 0.69 | 0.25 | 84 | 1014.8 |
| 20260507104222 | 49 | 129 | 0.0 | 0.0 | 0.00 | 0.69 | 0.25 | 84 | 1014.8 |
| 20260507103713 | 49 | 130 | 0.0 | 0.0 | 0.00 | 0.70 | 0.25 | 85 | 1014.8 |
| 20260507103218 | 49 | 96 | 0.0 | 0.0 | 0.00 | 0.70 | 0.25 | 86 | 1014.8 |
| 20260507102208 | 48 | 129 | 0.0 | 1.7 | 0.00 | 0.71 | 0.25 | 86 | 1015.0 |
| 20260507101715 | 48 | 140 | 0.0 | 2.6 | 0.00 | 0.71 | 0.25 | 87 | 1015.0 |
| 20260507101248 | 47 | 196 | 0.0 | 2.6 | 0.00 | 0.71 | 0.25 | 87 | 1015.1 |
| 20260507100733 | 47 | 80 | 0.0 | 2.6 | 0.00 | 0.71 | 0.25 | 87 | 1015.0 |
| 20260507100224 | 47 | 119 | 0.0 | 2.6 | 0.00 | 0.71 | 0.25 | 87 | 1015.0 |
| 20260507095726 | 47 | 85 | 0.0 | 3.5 | 0.00 | 0.71 | 0.25 | 90 | 1015.0 |
| 20260507094713 | 47 | 173 | 0.9 | 4.3 | 0.00 | 0.71 | 0.25 | 90 | 1015.0 |
| 20260507094224 | 47 | 209 | 1.7 | 4.3 | 0.00 | 0.71 | 0.25 | 90 | 1015.0 |
| 20260507092722 | 46 | 172 | 0.9 | 5.2 | 0.00 | 0.71 | 0.25 | 92 | 1014.8 |
| 20260507092235 | 46 | 189 | 1.7 | 5.2 | 0.00 | 0.71 | 0.25 | 92 | 1014.7 |
| 20260507091752 | 46 | 152 | 0.9 | 5.2 | 0.00 | 0.71 | 0.25 | 93 | 1014.7 |
| 20260507090724 | 46 | 160 | 0.0 | 4.3 | 0.00 | 0.71 | 0.25 | 93 | 1014.6 |
| 20260507090218 | 46 | 120 | 0.0 | 3.5 | 0.00 | 0.71 | 0.25 | 93 | 1014.6 |
| 20260507085720 | 46 | 166 | 0.0 | 3.5 | 0.00 | 0.71 | 0.25 | 93 | 1014.5 |
| 20260507084713 | 46 | 164 | 0.0 | 2.6 | 0.00 | 0.72 | 0.25 | 94 | 1014.5 |
| 20260507084210 | 46 | 152 | 0.0 | 2.6 | 0.00 | 0.72 | 0.25 | 94 | 1014.4 |
| 20260507083720 | 46 | 130 | 0.0 | 4.3 | 0.00 | 0.72 | 0.25 | 94 | 1014.4 |
| 20260507083213 | 46 | 124 | 0.9 | 4.3 | 0.00 | 0.72 | 0.25 | 95 | 1014.4 |
| 20260507082745 | 45 | 116 | 0.9 | 2.6 | 0.00 | 0.72 | 0.25 | 95 | 1014.4 |
| 20260507082214 | 45 | 138 | 0.9 | 2.6 | 0.00 | 0.72 | 0.25 | 95 | 1014.3 |
| 20260507081726 | 45 | 161 | 0.0 | 2.6 | 0.00 | 0.72 | 0.25 | 95 | 1014.4 |
| 20260507081214 | 45 | 140 | 0.0 | 4.3 | 0.00 | 0.72 | 0.25 | 95 | 1014.3 |
| 20260507080710 | 45 | 161 | 0.0 | 4.3 | 0.00 | 0.72 | 0.25 | 95 | 1014.3 |
| 20260507080209 | 45 | 112 | 0.9 | 4.3 | 0.00 | 0.72 | 0.25 | 95 | 1014.2 |
| 20260507075725 | 45 | 123 | 0.0 | 3.5 | 0.00 | 0.72 | 0.25 | 95 | 1014.2 |
| 20260507075219 | 45 | 140 | 0.0 | 4.3 | 0.00 | 0.72 | 0.25 | 95 | 1014.2 |
| 20260507074710 | 45 | 134 | 0.9 | 5.2 | 0.00 | 0.72 | 0.25 | 95 | 1014.2 |
| 20260507074213 | 44 | 144 | 0.9 | 5.2 | 0.01 | 0.72 | 0.25 | 95 | 1014.1 |
| 20260507072721 | 45 | 126 | 0.9 | 6.1 | 0.01 | 0.72 | 0.25 | 96 | 1014.0 |
| 20260507072228 | 45 | 188 | 0.9 | 4.3 | 0.01 | 0.72 | 0.25 | 96 | 1014.0 |
| 20260507071214 | 44 | 136 | 0.9 | 4.3 | 0.01 | 0.72 | 0.25 | 96 | 1013.9 |
| 20260507070727 | 44 | 140 | 0.9 | 4.3 | 0.01 | 0.72 | 0.25 | 96 | 1013.8 |
| 20260507070210 | 44 | 142 | 0.9 | 4.3 | 0.01 | 0.72 | 0.25 | 96 | 1013.7 |
| 20260507065720 | 44 | 126 | 0.9 | 3.5 | 0.02 | 0.72 | 0.25 | 96 | 1013.8 |
| 20260507065220 | 44 | 148 | 0.9 | 3.5 | 0.02 | 0.72 | 0.25 | 96 | 1013.8 |
| 20260507064720 | 44 | 121 | 0.0 | 2.6 | 0.01 | 0.71 | 0.24 | 96 | 1013.7 |
| 20260507064225 | 44 | 170 | 0.0 | 2.6 | 0.01 | 0.71 | 0.24 | 96 | 1013.7 |
| 20260507063709 | 44 | 141 | 0.0 | 2.6 | 0.01 | 0.71 | 0.24 | 96 | 1013.8 |
| 20260507062710 | 44 | 113 | 0.0 | 0.0 | 0.01 | 0.71 | 0.24 | 96 | 1013.7 |
| 20260507062221 | 44 | 140 | 0.0 | 2.6 | 0.01 | 0.71 | 0.24 | 96 | 1013.7 |
| 20260507061714 | 44 | 169 | 0.0 | 2.6 | 0.01 | 0.71 | 0.24 | 96 | 1013.7 |
| 20260507061209 | 44 | 166 | 0.0 | 2.6 | 0.02 | 0.71 | 0.24 | 96 | 1013.5 |
| 20260507060219 | 44 | 138 | 0.0 | 2.6 | 0.02 | 0.71 | 0.24 | 96 | 1013.3 |
| 20260507055723 | 44 | 140 | 0.0 | 4.3 | 0.01 | 0.70 | 0.24 | 96 | 1013.3 |
| 20260507055230 | 44 | 161 | 0.9 | 4.3 | 0.02 | 0.70 | 0.24 | 96 | 1013.3 |
| 20260507054217 | 44 | 149 | 0.0 | 3.5 | 0.02 | 0.70 | 0.24 | 96 | 1013.2 |
| 20260507053725 | 44 | 155 | 0.0 | 2.6 | 0.02 | 0.70 | 0.24 | 96 | 1013.1 |
| 20260507053220 | 44 | 133 | 0.0 | 0.0 | 0.02 | 0.70 | 0.24 | 96 | 1013.1 |
| 20260507051722 | 44 | 68 | 0.0 | 0.0 | 0.02 | 0.70 | 0.24 | 96 | 1012.9 |
| 20260507051224 | 44 | 109 | 0.0 | 0.0 | 0.02 | 0.69 | 0.23 | 96 | 1012.9 |
| 20260507050713 | 44 | 109 | 0.0 | 0.0 | 0.02 | 0.69 | 0.23 | 96 | 1012.9 |
| 20260507050210 | 44 | 156 | 0.0 | 0.0 | 0.02 | 0.69 | 0.23 | 96 | 1012.8 |
| 20260507045725 | 44 | 175 | 0.0 | 0.0 | 0.02 | 0.69 | 0.23 | 96 | 1012.8 |
| 20260507045231 | 44 | 143 | 0.0 | 0.0 | 0.02 | 0.69 | 0.22 | 96 | 1012.6 |
| 20260507044727 | 44 | 142 | 0.0 | 0.0 | 0.02 | 0.69 | 0.22 | 96 | 1012.6 |
| 20260507043725 | 44 | 120 | 0.0 | 0.0 | 0.03 | 0.68 | 0.21 | 96 | 1012.5 |
| 20260507043221 | 44 | 155 | 0.0 | 0.0 | 0.03 | 0.68 | 0.21 | 96 | 1012.5 |
| 20260507042715 | 44 | 167 | 0.0 | 0.0 | 0.04 | 0.68 | 0.21 | 96 | 1012.4 |
| 20260507041711 | 44 | 139 | 0.0 | 0.0 | 0.05 | 0.68 | 0.21 | 96 | 1012.5 |
| 20260507041226 | 44 | 171 | 0.0 | 0.0 | 0.05 | 0.68 | 0.21 | 96 | 1012.4 |
| 20260507040717 | 44 | 141 | 0.0 | 0.0 | 0.05 | 0.67 | 0.20 | 96 | 1012.4 |
| 20260507040207 | 44 | 144 | 0.0 | 0.0 | 0.05 | 0.67 | 0.20 | 96 | 1012.2 |
| 20260507035226 | 44 | 135 | 0.0 | 0.0 | 0.06 | 0.66 | 0.20 | 96 | 1012.2 |
| 20260507034717 | 43 | 130 | 0.0 | 0.0 | 0.06 | 0.66 | 0.20 | 95 | 1012.1 |
| 20260507034222 | 43 | 150 | 0.0 | 0.0 | 0.06 | 0.65 | 0.19 | 95 | 1012.1 |
| 20260507033724 | 43 | 142 | 0.0 | 0.0 | 0.06 | 0.65 | 0.18 | 95 | 1012.1 |
| 20260507033216 | 43 | 155 | 0.0 | 0.0 | 0.06 | 0.65 | 0.18 | 95 | 1012.1 |
| 20260507032726 | 43 | 147 | 0.0 | 0.0 | 0.06 | 0.64 | 0.17 | 95 | 1012.0 |
| 20260507032251 | 43 | 133 | 0.0 | 0.0 | 0.06 | 0.64 | 0.17 | 95 | 1012.0 |
| 20260507031714 | 43 | 144 | 0.0 | 0.0 | 0.06 | 0.63 | 0.17 | 95 | 1012.0 |
| 20260507031221 | 43 | 168 | 0.0 | 0.0 | 0.07 | 0.63 | 0.17 | 95 | 1012.0 |
| 20260507030719 | 43 | 138 | 0.0 | 2.6 | 0.06 | 0.62 | 0.16 | 95 | 1012.0 |
| 20260507030229 | 43 | 173 | 0.0 | 2.6 | 0.07 | 0.62 | 0.16 | 95 | 1012.0 |
| 20260507025723 | 43 | 113 | 0.0 | 2.6 | 0.07 | 0.61 | 0.15 | 95 | 1011.9 |
| 20260507025209 | 43 | 131 | 0.0 | 0.0 | 0.06 | 0.61 | 0.14 | 95 | 1011.9 |
| 20260507024720 | 43 | 148 | 0.0 | 2.6 | 0.06 | 0.60 | 0.13 | 95 | 1011.9 |
| 20260507024220 | 43 | 146 | 0.0 | 2.6 | 0.06 | 0.59 | 0.13 | 95 | 1011.9 |
| 20260507023711 | 43 | 134 | 0.0 | 2.6 | 0.06 | 0.58 | 0.12 | 95 | 1011.9 |
| 20260507023224 | 43 | 138 | 0.0 | 2.6 | 0.05 | 0.57 | 0.11 | 95 | 1011.8 |
| 20260507022718 | 43 | 171 | 0.0 | 2.6 | 0.05 | 0.57 | 0.11 | 95 | 1011.8 |
| 20260507022219 | 43 | 173 | 0.0 | 3.5 | 0.04 | 0.57 | 0.10 | 95 | 1011.8 |
| 20260507021720 | 43 | 142 | 0.0 | 4.3 | 0.04 | 0.57 | 0.10 | 95 | 1011.7 |
| 20260507021226 | 43 | 107 | 0.0 | 4.3 | 0.04 | 0.56 | 0.09 | 95 | 1011.7 |
| 20260507020724 | 43 | 155 | 0.9 | 4.3 | 0.03 | 0.55 | 0.09 | 95 | 1011.6 |
| 20260507020230 | 43 | 145 | 0.9 | 3.5 | 0.03 | 0.55 | 0.09 | 95 | 1011.6 |
| 20260507015726 | 43 | 162 | 0.0 | 4.3 | 0.02 | 0.54 | 0.08 | 95 | 1011.6 |
| 20260507015222 | 43 | 150 | 0.0 | 4.3 | 0.02 | 0.54 | 0.08 | 95 | 1011.6 |
| 20260507014721 | 43 | 155 | 0.0 | 4.3 | 0.02 | 0.54 | 0.07 | 95 | 1011.6 |
| 20260507014225 | 43 | 161 | 0.0 | 4.3 | 0.02 | 0.54 | 0.07 | 95 | 1011.5 |
| 20260507013721 | 43 | 155 | 0.0 | 2.6 | 0.01 | 0.53 | 0.06 | 95 | 1011.4 |
| 20260507013223 | 43 | 141 | 0.0 | 2.6 | 0.01 | 0.53 | 0.06 | 95 | 1011.5 |
| 20260507012727 | 43 | 127 | 0.0 | 3.5 | 0.02 | 0.53 | 0.06 | 95 | 1011.4 |
| 20260507012218 | 43 | 132 | 0.0 | 6.1 | 0.02 | 0.53 | 0.06 | 95 | 1011.4 |
| 20260507011728 | 43 | 135 | 0.9 | 6.1 | 0.02 | 0.53 | 0.06 | 95 | 1011.4 |
| 20260507010737 | 43 | 141 | 0.9 | 4.3 | 0.01 | 0.52 | 0.06 | 94 | 1011.4 |
| 20260507010222 | 43 | 155 | 0.9 | 6.1 | 0.01 | 0.52 | 0.06 | 94 | 1011.4 |
| 20260507005723 | 43 | 136 | 1.7 | 6.1 | 0.01 | 0.52 | 0.06 | 94 | 1011.4 |
| 20260507005221 | 43 | 132 | 1.7 | 7.0 | 0.01 | 0.52 | 0.06 | 94 | 1011.4 |
| 20260507004721 | 43 | 153 | 1.7 | 7.0 | 0.01 | 0.52 | 0.06 | 94 | 1011.3 |
| 20260507004213 | 43 | 136 | 1.7 | 7.0 | 0.01 | 0.52 | 0.06 | 94 | 1011.4 |
| 20260507003710 | 43 | 123 | 1.7 | 7.8 | 0.01 | 0.52 | 0.06 | 94 | 1011.3 |
| 20260507003207 | 43 | 144 | 1.7 | 7.8 | 0.00 | 0.51 | 0.05 | 94 | 1011.3 |
| 20260507002720 | 43 | 119 | 1.7 | 7.0 | 0.01 | 0.51 | 0.05 | 94 | 1011.4 |
| 20260507001734 | 43 | 142 | 2.6 | 7.8 | 0.01 | 0.51 | 0.05 | 94 | 1011.3 |
| 20260507001212 | 43 | 172 | 2.6 | 7.8 | 0.01 | 0.51 | 0.05 | 94 | 1011.4 |
| 20260507000223 | 43 | 173 | 0.9 | 3.5 | 0.02 | 0.51 | 0.05 | 94 | 1011.3 |
| 20260506235720 | 43 | 151 | 0.0 | 0.9 | 0.02 | 0.51 | 0.05 | 94 | 1011.3 |
| 20260506235220 | 43 | 144 | 0.0 | 0.9 | 0.02 | 0.51 | 0.05 | 94 | 1011.4 |
| 20260506234720 | 43 | 159 | 0.0 | 0.9 | 0.02 | 0.51 | 0.05 | 94 | 1011.3 |
| 20260506234223 | 43 | 110 | 0.0 | 0.0 | 0.02 | 0.51 | 0.05 | 94 | 1011.3 |
| 20260506233728 | 43 | 161 | 0.0 | 0.0 | 0.02 | 0.51 | 0.05 | 94 | 1011.4 |
| 20260506233231 | 43 | 150 | 0.0 | 4.3 | 0.03 | 0.51 | 0.05 | 94 | 1011.4 |
| 20260506232717 | 43 | 140 | 0.0 | 6.1 | 0.03 | 0.50 | 0.04 | 93 | 1011.5 |
| 20260506232219 | 43 | 153 | 0.9 | 6.1 | 0.03 | 0.50 | 0.04 | 93 | 1011.5 |
| 20260506231228 | 43 | 140 | 0.9 | 4.3 | 0.04 | 0.50 | 0.04 | 93 | 1011.6 |
| 20260506230724 | 43 | 126 | 0.9 | 5.2 | 0.03 | 0.50 | 0.03 | 93 | 1011.5 |
| 20260506230225 | 43 | 159 | 1.7 | 7.8 | 0.03 | 0.50 | 0.03 | 93 | 1011.5 |
| 20260506225707 | 43 | 168 | 2.6 | 9.6 | 0.03 | 0.50 | 0.03 | 93 | 1011.5 |
| 20260506225215 | 43 | 135 | 4.3 | 9.6 | 0.03 | 0.50 | 0.03 | 93 | 1011.5 |
| 20260506224214 | 44 | 130 | 2.6 | 7.8 | 0.02 | 0.49 | 0.02 | 93 | 1011.5 |
| 20260506223219 | 44 | 155 | 2.6 | 7.8 | 0.02 | 0.48 | 0.02 | 93 | 1011.5 |
| 20260506222725 | 44 | 96 | 2.6 | 6.1 | 0.01 | 0.47 | 0.01 | 93 | 1011.6 |
| 20260506222226 | 44 | 158 | 1.7 | 7.0 | 0.01 | 0.47 | 0.01 | 92 | 1011.4 |
| 20260506221716 | 44 | 68 | 1.7 | 7.0 | 0.00 | 0.46 | 0.00 | 92 | 1011.4 |
| 20260506220717 | 44 | 98 | 2.6 | 7.0 | 0.00 | 0.46 | 0.00 | 92 | 1011.3 |
| 20260506220231 | 44 | 92 | 2.6 | 7.0 | 0.00 | 0.46 | 0.46 | 92 | 1011.4 |
| 20260506215729 | 44 | 92 | 1.7 | 13.0 | 0.00 | 0.46 | 0.46 | 92 | 1011.4 |
| 20260506215214 | 44 | 154 | 1.7 | 13.0 | 0.00 | 0.46 | 0.46 | 92 | 1011.4 |
| 20260506214720 | 44 | 108 | 4.3 | 13.0 | 0.00 | 0.46 | 0.46 | 92 | 1011.4 |
| 20260506213714 | 44 | 111 | 3.5 | 7.8 | 0.00 | 0.46 | 0.46 | 92 | 1011.2 |
| 20260506213212 | 44 | 150 | 3.5 | 7.8 | 0.01 | 0.46 | 0.46 | 92 | 1011.1 |
| 20260506212714 | 44 | 169 | 1.7 | 7.8 | 0.01 | 0.46 | 0.46 | 92 | 1011.1 |
| 20260506212222 | 44 | 164 | 1.7 | 8.7 | 0.01 | 0.46 | 0.46 | 92 | 1010.9 |
| 20260506211708 | 44 | 95 | 2.6 | 8.7 | 0.01 | 0.46 | 0.46 | 92 | 1010.9 |
| 20260506211229 | 44 | 93 | 2.6 | 8.7 | 0.02 | 0.46 | 0.46 | 92 | 1010.9 |
| 20260506210230 | 44 | 132 | 2.6 | 8.7 | 0.02 | 0.46 | 0.46 | 92 | 1010.8 |
| 20260506205723 | 44 | 109 | 2.6 | 8.7 | 0.02 | 0.46 | 0.46 | 92 | 1010.8 |
| 20260506205212 | 44 | 154 | 0.9 | 0.0 | 0.02 | 0.46 | 0.46 | 94 | 1010.7 |
| 20260506204715 | 44 | 131 | 0.0 | 0.0 | 0.02 | 0.46 | 0.46 | 94 | 1010.8 |
| 20260506204222 | 44 | 110 | 0.0 | 0.0 | 0.02 | 0.46 | 0.46 | 94 | 1010.8 |
| 20260506203724 | 44 | 113 | 0.0 | 0.0 | 0.02 | 0.46 | 0.46 | 94 | 1010.8 |
| 20260506203213 | 44 | 113 | 0.0 | 0.0 | 0.02 | 0.46 | 0.46 | 94 | 1010.8 |
| 20260506202725 | 44 | 119 | 0.0 | 0.0 | 0.02 | 0.46 | 0.46 | 94 | 1010.7 |
| 20260506202209 | 44 | 140 | 0.0 | 0.0 | 0.02 | 0.46 | 0.46 | 94 | 1010.7 |
| 20260506201724 | 44 | 146 | 0.0 | 0.0 | 0.02 | 0.46 | 0.46 | 94 | 1010.7 |
| 20260506201213 | 44 | 128 | 0.0 | 0.0 | 0.02 | 0.45 | 0.45 | 94 | 1010.6 |
| 20260506200729 | 44 | 51 | 0.0 | 0.0 | 0.02 | 0.45 | 0.45 | 94 | 1010.6 |
| 20260506200218 | 44 | 22 | 0.0 | 0.0 | 0.02 | 0.45 | 0.45 | 94 | 1010.6 |
| 20260506195729 | 44 | 169 | 0.0 | 0.0 | 0.02 | 0.45 | 0.45 | 94 | 1010.6 |
| 20260506195214 | 44 | 169 | 0.0 | 1.7 | 0.02 | 0.45 | 0.45 | 94 | 1010.6 |
| 20260506194720 | 44 | 88 | 0.0 | 2.6 | 0.02 | 0.45 | 0.45 | 94 | 1010.5 |
| 20260506193716 | 44 | 123 | 0.0 | 4.3 | 0.02 | 0.44 | 0.44 | 94 | 1010.5 |
| 20260506193222 | 44 | 115 | 0.0 | 5.2 | 0.02 | 0.44 | 0.44 | 93 | 1010.4 |
| 20260506192724 | 44 | 160 | 0.9 | 5.2 | 0.02 | 0.44 | 0.44 | 93 | 1010.4 |
| 20260506192214 | 44 | 152 | 0.9 | 5.2 | 0.03 | 0.44 | 0.44 | 93 | 1010.4 |
| 20260506191751 | 44 | 121 | 0.9 | 5.2 | 0.03 | 0.43 | 0.43 | 93 | 1010.4 |
| 20260506190723 | 44 | 128 | 0.0 | 6.1 | 0.04 | 0.43 | 0.43 | 93 | 1010.2 |
| 20260506190212 | 45 | 109 | 0.9 | 7.0 | 0.05 | 0.43 | 0.43 | 94 | 1010.2 |
| 20260506185726 | 45 | 180 | 1.7 | 7.0 | 0.05 | 0.43 | 0.43 | 93 | 1010.2 |
| 20260506185209 | 45 | 188 | 1.7 | 7.0 | 0.05 | 0.43 | 0.43 | 94 | 1010.2 |
| 20260506184713 | 45 | 127 | 0.9 | 6.1 | 0.06 | 0.43 | 0.43 | 94 | 1010.1 |
| 20260506184230 | 45 | 117 | 0.9 | 6.1 | 0.06 | 0.43 | 0.43 | 94 | 1010.0 |
| 20260506183715 | 45 | 98 | 0.9 | 6.1 | 0.06 | 0.43 | 0.43 | 94 | 1010.0 |
| 20260506183225 | 45 | 121 | 0.9 | 6.1 | 0.06 | 0.42 | 0.42 | 94 | 1010.0 |
| 20260506182712 | 45 | 148 | 0.0 | 2.6 | 0.07 | 0.42 | 0.42 | 94 | 1009.9 |
| 20260506182225 | 45 | 139 | 0.0 | 4.3 | 0.06 | 0.42 | 0.41 | 94 | 1009.9 |
| 20260506181721 | 45 | 148 | 0.9 | 4.3 | 0.06 | 0.41 | 0.40 | 94 | 1009.8 |
| 20260506181212 | 45 | 129 | 0.0 | 4.3 | 0.06 | 0.41 | 0.39 | 94 | 1009.8 |
| 20260506180211 | 45 | 117 | 0.0 | 3.5 | 0.06 | 0.43 | 0.39 | 94 | 1009.7 |
| 20260506175724 | 45 | 159 | 0.0 | 4.3 | 0.06 | 0.43 | 0.38 | 94 | 1009.7 |
| 20260506175219 | 45 | 103 | 0.9 | 4.3 | 0.06 | 0.45 | 0.38 | 94 | 1009.7 |
| 20260506174717 | 45 | 113 | 0.9 | 4.3 | 0.06 | 0.50 | 0.37 | 94 | 1009.5 |
| 20260506174221 | 45 | 154 | 0.0 | 3.5 | 0.06 | 0.50 | 0.36 | 93 | 1009.5 |
| 20260506173732 | 45 | 144 | 0.0 | 3.5 | 0.07 | 0.50 | 0.35 | 93 | 1009.4 |
| 20260506173230 | 45 | 157 | 0.0 | 5.2 | 0.06 | 0.50 | 0.35 | 93 | 1009.3 |
| 20260506172724 | 45 | 156 | 0.9 | 6.1 | 0.06 | 0.49 | 0.35 | 93 | 1009.3 |
| 20260506171722 | 45 | 101 | 1.7 | 6.1 | 0.06 | 0.48 | 0.34 | 93 | 1009.2 |
| 20260506171230 | 45 | 122 | 0.9 | 6.1 | 0.06 | 0.47 | 0.33 | 94 | 1009.1 |
| 20260506170728 | 45 | 144 | 1.7 | 6.1 | 0.06 | 0.47 | 0.33 | 94 | 1009.1 |
| 20260506170221 | 45 | 142 | 1.7 | 6.1 | 0.06 | 0.46 | 0.32 | 94 | 1009.1 |
| 20260506165717 | 45 | 142 | 0.9 | 4.3 | 0.06 | 0.46 | 0.31 | 94 | 1009.0 |
| 20260506165220 | 45 | 109 | 0.9 | 4.3 | 0.06 | 0.46 | 0.31 | 94 | 1009.0 |
| 20260506164719 | 45 | 126 | 0.9 | 5.2 | 0.05 | 0.45 | 0.31 | 94 | 1009.0 |
| 20260506164221 | 45 | 129 | 0.9 | 5.2 | 0.05 | 0.44 | 0.30 | 94 | 1009.1 |
| 20260506163715 | 45 | 128 | 1.7 | 5.2 | 0.04 | 0.43 | 0.29 | 94 | 1009.0 |
| 20260506163216 | 45 | 143 | 0.9 | 3.5 | 0.03 | 0.43 | 0.28 | 93 | 1009.0 |
| 20260506162225 | 45 | 140 | 0.0 | 3.5 | 0.02 | 0.42 | 0.28 | 93 | 1009.0 |
| 20260506161735 | 45 | 133 | 0.9 | 3.5 | 0.02 | 0.42 | 0.28 | 93 | 1009.0 |
| 20260506161217 | 45 | 156 | 0.9 | 3.5 | 0.02 | 0.42 | 0.28 | 93 | 1009.1 |
| 20260506160242 | 45 | 96 | 0.9 | 3.5 | 0.02 | 0.41 | 0.27 | 93 | 1009.1 |
| 20260506155707 | 45 | 134 | 0.9 | 4.3 | 0.02 | 0.40 | 0.26 | 93 | 1009.1 |
| 20260506155219 | 45 | 142 | 0.9 | 4.3 | 0.02 | 0.40 | 0.26 | 93 | 1009.1 |
| 20260506154724 | 45 | 146 | 0.9 | 5.2 | 0.02 | 0.39 | 0.25 | 93 | 1009.1 |
| 20260506154208 | 45 | 165 | 1.7 | 5.2 | 0.02 | 0.39 | 0.25 | 93 | 1009.0 |
| 20260506153218 | 45 | 120 | 2.6 | 5.2 | 0.03 | 0.39 | 0.25 | 92 | 1009.0 |
| 20260506152717 | 45 | 130 | 1.7 | 4.3 | 0.03 | 0.39 | 0.25 | 92 | 1009.0 |
| 20260506152224 | 45 | 136 | 1.7 | 4.3 | 0.04 | 0.39 | 0.25 | 92 | 1009.1 |
| 20260506151718 | 46 | 132 | 0.9 | 4.3 | 0.04 | 0.39 | 0.25 | 92 | 1009.0 |
| 20260506151220 | 46 | 153 | 0.9 | 4.3 | 0.03 | 0.39 | 0.24 | 92 | 1009.0 |
| 20260506150720 | 46 | 133 | 0.0 | 4.3 | 0.04 | 0.39 | 0.24 | 92 | 1009.0 |